Location: Ahausen
(50.4985°N, 8.2722°E)
Time: 14:36:19
(UTC+00:00)

Cosmos 2151 Rocket - Pass Details

Date: 18 September 2020
Orbit: 618 x 642 km, 82.5° (Epoch: 22 October)

Event Time Altitude Azimuth Distance (km) Brightness Sun altitude
Rises 18:44:54 0° 167° (SSE) 2,903 6.7 -12.0°
Reaches altitude 10° 18:47:13 10° 160° (SSE) 2,005 5.8 -12.4°
Maximum altitude 18:51:21 39° 92° (E) 951 4.0 -13.0°
Drops below altitude 10° 18:55:32 10° 24° (NNE) 2,034 6.2 -13.6°
Sets 18:57:54 0° 17° (NNE) 2,952 7.1 -14.0°
